| time (UTC) | temp F | wind direction | speed knots | gust knots | rain 1hr in | rain 24hr in | rain mn in | humidity % | barometer mb |
| 20260506051012 | 70 | 144 | 0.0 | 0.0 | 0.00 | 0.00 | 0.00 | 58 | |
| 20260506050509 | 69 | 143 | 0.0 | 0.0 | 0.00 | 0.00 | 0.00 | 58 | |
| 20260506044959 | 69 | 142 | 0.0 | 0.0 | 0.00 | 0.00 | 0.00 | 59 | |
| 20260506044458 | 69 | 142 | 0.0 | 0.0 | 0.00 | 0.00 | 0.00 | 58 | |
| 20260506043954 | 69 | 142 | 0.0 | 0.0 | 0.00 | 0.00 | 0.00 | 58 | |
| 20260506043451 | 69 | 142 | 0.0 | 0.0 | 0.00 | 0.00 | 0.00 | 58 | |
| 20260506042949 | 69 | 142 | 0.0 | 0.0 | 0.00 | 0.00 | 0.00 | 57 | |
| 20260506042448 | 69 | 142 | 0.0 | 0.0 | 0.00 | 0.00 | 0.00 | 57 | |
| 20260506041946 | 69 | 142 | 0.0 | 0.0 | 0.00 | 0.00 | 0.00 | 56 | |
| 20260506041444 | 69 | 142 | 0.0 | 0.9 | 0.00 | 0.00 | 0.00 | 56 | |
| 20260506040941 | 69 | 145 | 0.0 | 0.0 | 0.00 | 0.00 | 0.00 | 56 | |
| 20260506040438 | 68 | 148 | 0.0 | 0.0 | 0.00 | 0.00 | 0.00 | 56 | |
| 20260506035934 | 68 | 148 | 0.0 | 0.0 | 0.00 | 0.00 | 0.00 | 56 | |
| 20260506035431 | 68 | 148 | 0.0 | 0.0 | 0.00 | 0.00 | 0.00 | 57 | |
| 20260506034928 | 68 | 148 | 0.0 | 0.0 | 0.00 | 0.00 | 0.00 | 56 | |
| 20260506034425 | 68 | 148 | 0.0 | 0.0 | 0.00 | 0.00 | 0.00 | 55 | |
| 20260506033922 | 68 | 148 | 0.0 | 0.0 | 0.00 | 0.00 | 0.00 | 56 | |
| 20260506033420 | 68 | 148 | 0.0 | 0.0 | 0.00 | 0.00 | 0.00 | 54 | |
| 20260506032916 | 68 | 148 | 0.0 | 0.0 | 0.00 | 0.00 | 0.00 | 54 | |
| 20260506032413 | 68 | 148 | 0.0 | 0.0 | 0.00 | 0.00 | 0.00 | 54 | |
| 20260506031910 | 68 | 148 | 0.0 | 0.0 | 0.00 | 0.00 | 0.00 | 55 | |
| 20260506031407 | 68 | 148 | 0.0 | 0.0 | 0.00 | 0.00 | 0.00 | 56 | |
| 20260506030905 | 68 | 148 | 0.0 | 0.0 | 0.00 | 0.00 | 0.00 | 57 | |
| 20260506030403 | 68 | 148 | 0.0 | 0.0 | 0.00 | 0.00 | 0.00 | 62 | |
| 20260506025859 | 68 | 148 | 0.0 | 0.0 | 0.00 | 0.00 | 0.00 | 62 | |
| 20260506025356 | 68 | 148 | 0.0 | 0.0 | 0.00 | 0.00 | 0.00 | 62 | |
| 20260506024853 | 68 | 148 | 0.0 | 0.0 | 0.00 | 0.00 | 0.00 | 61 | |
| 20260506024350 | 67 | 148 | 0.0 | 0.0 | 0.00 | 0.00 | 0.00 | 58 | |
| 20260506023846 | 67 | 148 | 0.0 | 0.0 | 0.00 | 0.00 | 0.00 | 63 | |
| 20260506023343 | 67 | 148 | 0.0 | 0.0 | 0.00 | 0.00 | 0.00 | 63 | |
| 20260506022839 | 67 | 149 | 0.0 | 0.0 | 0.00 | 0.00 | 0.00 | 62 | |
| 20260506022337 | 67 | 150 | 0.0 | 0.0 | 0.00 | 0.00 | 0.00 | 65 | |
| 20260506021835 | 68 | 149 | 0.0 | 0.0 | 0.00 | 0.00 | 0.00 | 65 | |
| 20260506021332 | 68 | 149 | 0.0 | 0.0 | 0.00 | 0.00 | 0.00 | 61 | |
| 20260506020828 | 68 | 140 | 0.0 | 0.9 | 0.00 | 0.00 | 0.00 | 61 | |
| 20260506020327 | 68 | 144 | 0.0 | 0.0 | 0.00 | 0.00 | 0.00 | 58 | |
| 20260506015824 | 68 | 144 | 0.0 | 0.0 | 0.00 | 0.00 | 0.00 | 61 | |
| 20260506015321 | 68 | 144 | 0.0 | 0.0 | 0.00 | 0.00 | 0.00 | 64 | |
| 20260506014817 | 68 | 143 | 0.0 | 0.0 | 0.00 | 0.00 | 0.00 | 65 | |
| 20260506014315 | 68 | 143 | 0.0 | 0.0 | 0.00 | 0.00 | 0.00 | 64 | |
| 20260506013811 | 68 | 143 | 0.0 | 0.0 | 0.00 | 0.00 | 0.00 | 61 | |
| 20260506013309 | 68 | 144 | 0.0 | 0.0 | 0.00 | 0.00 | 0.00 | 56 | |
| 20260506012805 | 68 | 144 | 0.0 | 0.0 | 0.00 | 0.00 | 0.00 | 54 | |
| 20260506012307 | 68 | 144 | 0.0 | 0.0 | 0.00 | 0.00 | 0.00 | 57 | |
| 20260506011759 | 68 | 143 | 0.0 | 0.0 | 0.00 | 0.00 | 0.00 | 56 | |
| 20260506011255 | 68 | 144 | 0.0 | 0.0 | 0.00 | 0.00 | 0.00 | 57 | |
| 20260506010754 | 68 | 143 | 0.0 | 0.0 | 0.00 | 0.00 | 0.00 | 60 | |
| 20260506010251 | 69 | 139 | 0.0 | 0.0 | 0.00 | 0.00 | 0.00 | 58 | |
| 20260506005748 | 69 | 143 | 0.0 | 0.0 | 0.00 | 0.00 | 0.00 | 56 | |
| 20260506005245 | 69 | 143 | 0.0 | 0.0 | 0.00 | 0.00 | 0.00 | 54 | |
| 20260506004740 | 69 | 143 | 0.0 | 0.0 | 0.00 | 0.00 | 0.00 | 54 | |
| 20260506004238 | 70 | 143 | 0.0 | 0.0 | 0.00 | 0.00 | 0.00 | 54 | |
| 20260506003734 | 70 | 149 | 0.0 | 0.0 | 0.00 | 0.00 | 0.00 | 54 | |
| 20260506003231 | 70 | 157 | 0.0 | 0.0 | 0.00 | 0.00 | 0.00 | 58 | |
| 20260506002726 | 70 | 149 | 0.0 | 0.0 | 0.00 | 0.00 | 0.00 | 57 | |
| 20260506002223 | 71 | 150 | 0.0 | 0.0 | 0.00 | 0.00 | 0.00 | 59 | |
| 20260506001719 | 71 | 150 | 0.0 | 0.0 | 0.00 | 0.00 | 0.00 | 57 | |
| 20260506001217 | 72 | 160 | 0.0 | 0.9 | 0.00 | 0.00 | 0.00 | 56 | |
| 20260506000713 | 71 | 140 | 0.0 | 0.0 | 0.00 | 0.00 | 0.00 | 54 | |
| 20260506000212 | 72 | 155 | 0.0 | 0.0 | 0.00 | 0.00 | 0.00 | 54 | |
| 20260505235708 | 72 | 155 | 0.0 | 0.0 | 0.00 | 0.00 | 0.00 | 52 | |
| 20260505235206 | 73 | 155 | 0.0 | 0.0 | 0.00 | 0.00 | 0.00 | 51 | |
| 20260505234703 | 73 | 155 | 0.0 | 0.0 | 0.00 | 0.00 | 0.00 | 50 | |
| 20260505234200 | 73 | 155 | 0.0 | 0.0 | 0.00 | 0.00 | 0.00 | 49 | |
| 20260505233656 | 74 | 155 | 0.0 | 0.0 | 0.00 | 0.00 | 0.00 | 47 | |
| 20260505233155 | 74 | 155 | 0.0 | 0.0 | 0.00 | 0.00 | 0.00 | 46 | |
| 20260505232652 | 74 | 155 | 0.0 | 0.0 | 0.00 | 0.00 | 0.00 | 46 | |
| 20260505232149 | 74 | 155 | 0.0 | 0.0 | 0.00 | 0.00 | 0.00 | 46 | |
| 20260505231645 | 75 | 155 | 0.0 | 0.0 | 0.00 | 0.00 | 0.00 | 45 | |
| 20260505231145 | 75 | 155 | 0.0 | 0.0 | 0.00 | 0.00 | 0.00 | 46 | |
| 20260505230642 | 75 | 156 | 0.0 | 0.0 | 0.00 | 0.00 | 0.00 | 45 | |
| 20260505230138 | 76 | 156 | 0.0 | 0.9 | 0.00 | 0.00 | 0.00 | 42 | |
| 20260505225635 | 76 | 149 | 0.9 | 0.9 | 0.00 | 0.00 | 0.00 | 43 | |
| 20260505225131 | 76 | 154 | 0.0 | 0.0 | 0.00 | 0.00 | 0.00 | 43 | |
| 20260505224628 | 75 | 152 | 0.0 | 0.9 | 0.00 | 0.00 | 0.00 | 46 | |
| 20260505224125 | 75 | 153 | 0.0 | 0.9 | 0.00 | 0.00 | 0.00 | 41 | |
| 20260505223622 | 75 | 150 | 0.0 | 0.0 | 0.00 | 0.00 | 0.00 | 42 | |
| 20260505223119 | 76 | 144 | 0.0 | 0.0 | 0.00 | 0.00 | 0.00 | 46 | |
| 20260505222615 | 76 | 146 | 0.0 | 0.9 | 0.00 | 0.00 | 0.00 | 44 | |
| 20260505222111 | 76 | 155 | 0.0 | 0.0 | 0.00 | 0.00 | 0.00 | 43 | |
| 20260505221608 | 76 | 156 | 0.9 | 0.9 | 0.00 | 0.00 | 0.00 | 43 | |
| 20260505221105 | 76 | 140 | 0.0 | 1.7 | 0.00 | 0.00 | 0.00 | 42 | |
| 20260505220602 | 77 | 156 | 0.0 | 0.9 | 0.00 | 0.00 | 0.00 | 41 | |
| 20260505220100 | 77 | 163 | 1.7 | 1.7 | 0.00 | 0.00 | 0.00 | 39 | |
| 20260505215558 | 76 | 159 | 0.0 | 0.9 | 0.00 | 0.00 | 0.00 | 40 | |
| 20260505215055 | 76 | 147 | 0.0 | 0.9 | 0.00 | 0.00 | 0.00 | 39 | |
| 20260505214554 | 77 | 154 | 2.6 | 2.6 | 0.00 | 0.00 | 0.00 | 38 | |
| 20260505214050 | 77 | 169 | 0.9 | 2.6 | 0.00 | 0.00 | 0.00 | 39 | |
| 20260505213548 | 76 | 137 | 0.9 | 1.7 | 0.00 | 0.00 | 0.00 | 40 | |
| 20260505213044 | 77 | 143 | 0.0 | 0.9 | 0.00 | 0.00 | 0.00 | 39 | |
| 20260505212540 | 77 | 159 | 1.7 | 2.6 | 0.00 | 0.00 | 0.00 | 38 | |
| 20260505212038 | 78 | 151 | 0.0 | 1.7 | 0.00 | 0.00 | 0.00 | 38 | |
| 20260505211535 | 77 | 138 | 0.9 | 1.7 | 0.00 | 0.00 | 0.00 | 38 | |
| 20260505211031 | 77 | 163 | 0.0 | 6.1 | 0.00 | 0.00 | 0.00 | 38 | |
| 20260505210528 | 77 | 175 | 1.7 | 3.5 | 0.00 | 0.00 | 0.00 | 37 | |
| 20260505210025 | 77 | 154 | 0.9 | 1.7 | 0.00 | 0.00 | 0.00 | 38 | |
| 20260505205523 | 78 | 200 | 3.5 | 5.2 | 0.00 | 0.00 | 0.00 | 38 | |
| 20260505205020 | 78 | 167 | 0.0 | 1.7 | 0.00 | 0.00 | 0.00 | 40 | |
| 20260505204518 | 78 | 142 | 0.0 | 1.7 | 0.00 | 0.00 | 0.00 | 39 | |
| 20260505204015 | 77 | 163 | 0.0 | 2.6 | 0.00 | 0.00 | 0.00 | 40 | |
| 20260505203511 | 77 | 171 | 0.9 | 2.6 | 0.00 | 0.00 | 0.00 | 38 | |
| 20260505203008 | 78 | 158 | 1.7 | 2.6 | 0.00 | 0.00 | 0.00 | 40 | |
| 20260505202504 | 77 | 157 | 0.0 | 1.7 | 0.00 | 0.00 | 0.00 | 38 | |
| 20260505202000 | 77 | 189 | 0.9 | 2.6 | 0.00 | 0.00 | 0.00 | 37 | |
| 20260505201458 | 78 | 168 | 2.6 | 6.1 | 0.00 | 0.00 | 0.00 | 37 | |
| 20260505200955 | 78 | 180 | 0.9 | 2.6 | 0.00 | 0.00 | 0.00 | 37 | |
| 20260505200453 | 78 | 186 | 1.7 | 2.6 | 0.00 | 0.00 | 0.00 | 39 | |
| 20260505195948 | 77 | 157 | 0.0 | 1.7 | 0.00 | 0.00 | 0.00 | 40 | |
| 20260505195446 | 78 | 161 | 0.9 | 1.7 | 0.00 | 0.00 | 0.00 | 38 | |
| 20260505194943 | 78 | 104 | 1.7 | 3.5 | 0.00 | 0.00 | 0.00 | 38 | |
| 20260505194440 | 78 | 176 | 1.7 | 3.5 | 0.00 | 0.00 | 0.00 | 39 | |
| 20260505193940 | 78 | 154 | 0.9 | 1.7 | 0.00 | 0.00 | 0.00 | 39 | |
| 20260505193438 | 78 | 200 | 0.9 | 1.7 | 0.00 | 0.00 | 0.00 | 39 | |
| 20260505192936 | 77 | 140 | 0.9 | 2.6 | 0.00 | 0.00 | 0.00 | 41 | |
| 20260505192434 | 77 | 141 | 0.0 | 0.9 | 0.00 | 0.00 | 0.00 | 44 | |
| 20260505191931 | 77 | 173 | 0.9 | 3.5 | 0.00 | 0.00 | 0.00 | 39 | |
| 20260505191429 | 79 | 31 | 0.9 | 1.7 | 0.00 | 0.00 | 0.00 | 40 | |
| 20260505190921 | 77 | 158 | 0.0 | 1.7 | 0.00 | 0.00 | 0.00 | 40 | |
| 20260505190416 | 77 | 168 | 0.0 | 0.9 | 0.00 | 0.00 | 0.00 | 40 | |
| 20260505185911 | 76 | 152 | 0.0 | 0.9 | 0.00 | 0.00 | 0.00 | 40 | |
| 20260505185409 | 76 | 189 | 1.7 | 3.5 | 0.00 | 0.00 | 0.00 | 41 | |
| 20260505184905 | 77 | 180 | 1.7 | 2.6 | 0.00 | 0.00 | 0.00 | 41 | |
| 20260505184402 | 77 | 164 | 1.7 | 2.6 | 0.00 | 0.00 | 0.00 | 44 | |
| 20260505183858 | 78 | 219 | 1.7 | 3.5 | 0.00 | 0.00 | 0.00 | 39 | |
| 20260505183355 | 78 | 172 | 0.9 | 2.6 | 0.00 | 0.00 | 0.00 | 40 | |
| 20260505182852 | 77 | 178 | 0.0 | 0.9 | 0.00 | 0.00 | 0.00 | 43 | |
| 20260505182348 | 77 | 145 | 0.0 | 1.7 | 0.00 | 0.00 | 0.00 | 40 | |
| 20260505181845 | 77 | 184 | 0.0 | 2.6 | 0.00 | 0.00 | 0.00 | 40 | |
| 20260505181342 | 77 | 162 | 0.9 | 3.5 | 0.00 | 0.00 | 0.00 | 41 | |
| 20260505180839 | 77 | 243 | 1.7 | 2.6 | 0.00 | 0.00 | 0.00 | 41 | |
| 20260505180335 | 77 | 135 | 0.9 | 1.7 | 0.00 | 0.00 | 0.00 | 41 | |
| 20260505175832 | 76 | 167 | 1.7 | 2.6 | 0.00 | 0.00 | 0.00 | 43 | |
| 20260505175328 | 77 | 178 | 1.7 | 3.5 | 0.00 | 0.00 | 0.00 | 41 | |
| 20260505174825 | 76 | 116 | 0.9 | 2.6 | 0.00 | 0.00 | 0.00 | 42 | |
| 20260505174322 | 76 | 180 | 0.0 | 1.7 | 0.00 | 0.00 | 0.00 | 45 | |
| 20260505173818 | 76 | 191 | 0.9 | 1.7 | 0.00 | 0.00 | 0.00 | 44 | |
| 20260505173314 | 77 | 137 | 1.7 | 5.2 | 0.00 | 0.00 | 0.00 | 46 | |
| 20260505172812 | 76 | 162 | 0.0 | 0.9 | 0.00 | 0.00 | 0.00 | 43 | |
| 20260505172310 | 76 | 250 | 0.9 | 1.7 | 0.00 | 0.00 | 0.00 | 43 | |
| 20260505171804 | 76 | 168 | 1.7 | 1.7 | 0.00 | 0.00 | 0.00 | 42 | |
| 20260505171301 | 76 | 142 | 1.7 | 5.2 | 0.00 | 0.00 | 0.00 | 41 | |
| 20260505170757 | 76 | 168 | 0.9 | 1.7 | 0.00 | 0.00 | 0.00 | 42 | |
| 20260505170255 | 75 | 206 | 0.9 | 1.7 | 0.00 | 0.00 | 0.00 | 44 | |
| 20260505165750 | 75 | 160 | 1.7 | 6.1 | 0.00 | 0.00 | 0.00 | 43 | |
| 20260505165246 | 76 | 159 | 0.9 | 6.1 | 0.00 | 0.00 | 0.00 | 45 | |
| 20260505164742 | 75 | 162 | 1.7 | 3.5 | 0.00 | 0.00 | 0.00 | 43 | |
| 20260505164239 | 76 | 170 | 0.0 | 6.1 | 0.00 | 0.00 | 0.00 | 45 | |
| 20260505163737 | 76 | 186 | 0.9 | 3.5 | 0.00 | 0.00 | 0.00 | 45 | |
| 20260505163236 | 76 | 202 | 1.7 | 1.7 | 0.00 | 0.00 | 0.00 | 46 | |
| 20260505162732 | 75 | 174 | 1.7 | 2.6 | 0.00 | 0.00 | 0.00 | 44 | |
| 20260505162229 | 75 | 152 | 1.7 | 1.7 | 0.00 | 0.00 | 0.00 | 46 | |
| 20260505161726 | 74 | 166 | 0.9 | 2.6 | 0.00 | 0.00 | 0.00 | 44 | |
| 20260505161224 | 75 | 174 | 0.0 | 2.6 | 0.00 | 0.00 | 0.00 | 41 | |
| 20260505160721 | 75 | 218 | 2.6 | 6.1 | 0.00 | 0.00 | 0.00 | 45 | |
| 20260505160219 | 74 | 177 | 1.7 | 1.7 | 0.00 | 0.00 | 0.00 | 47 | |
| 20260505153158 | 71 | 160 | 0.0 | 0.9 | 0.00 | 0.00 | 0.00 | 54 | |
| 20260505152655 | 71 | 132 | 0.9 | 1.7 | 0.00 | 0.00 | 0.00 | 55 | |
| 20260505152151 | 70 | 156 | 0.0 | 0.9 | 0.00 | 0.00 | 0.00 | 58 | |
| 20260505151646 | 70 | 156 | 0.0 | 0.9 | 0.00 | 0.00 | 0.00 | 58 | |
| 20260505151144 | 70 | 206 | 0.9 | 0.9 | 0.00 | 0.00 | 0.00 | 60 | |
| 20260505150639 | 69 | 124 | 0.0 | 1.7 | 0.00 | 0.00 | 0.00 | 59 | |
| 20260505150137 | 69 | 136 | 0.0 | 0.9 | 0.00 | 0.00 | 0.00 | 61 | |
| 20260505140605 | 64 | 135 | 0.0 | 0.0 | 0.00 | 0.00 | 0.00 | 71 | |
| 20260505125019 | 55 | 120 | 0.0 | 0.0 | 0.00 | 0.00 | 0.00 | 89 | |
| 20260505124515 | 55 | 120 | 0.0 | 0.0 | 0.00 | 0.00 | 0.00 | 90 | |
| 20260505124012 | 54 | 120 | 0.0 | 0.0 | 0.00 | 0.00 | 0.00 | 91 | |
| 20260505123509 | 54 | 120 | 0.0 | 0.0 | 0.00 | 0.00 | 0.00 | 90 | |
| 20260505123004 | 54 | 120 | 0.0 | 0.0 | 0.00 | 0.00 | 0.00 | 90 | |
| 20260505122502 | 53 | 120 | 0.0 | 0.0 | 0.00 | 0.00 | 0.00 | 90 | |
| 20260505121958 | 53 | 110 | 0.0 | 0.9 | 0.00 | 0.00 | 0.00 | 90 | |
| 20260505121455 | 53 | 120 | 0.0 | 0.0 | 0.00 | 0.00 | 0.00 | 90 | |
| 20260505120951 | 53 | 120 | 0.0 | 0.9 | 0.00 | 0.00 | 0.00 | 90 | |
| 20260505120448 | 52 | 129 | 0.0 | 0.0 | 0.00 | 0.00 | 0.00 | 91 | |
| 20260505115947 | 52 | 119 | 0.0 | 0.0 | 0.00 | 0.00 | 0.00 | 91 | |
| 20260505115443 | 53 | 133 | 0.0 | 0.0 | 0.00 | 0.00 | 0.00 | 89 | |
| 20260505114942 | 52 | 133 | 0.0 | 0.0 | 0.00 | 0.00 | 0.00 | 94 | |
| 20260505114437 | 50 | 133 | 0.0 | 0.9 | 0.00 | 0.00 | 0.00 | 98 | |
| 20260505113934 | 49 | 133 | 0.0 | 0.0 | 0.00 | 0.00 | 0.00 | 99 | |
| 20260505113430 | 49 | 133 | 0.0 | 0.0 | 0.00 | 0.00 | 0.00 | 99 | |
| 20260505112926 | 49 | 133 | 0.0 | 0.0 | 0.00 | 0.00 | 0.00 | 99 | |
| 20260505112424 | 47 | 133 | 0.0 | 0.0 | 0.00 | 0.00 | 0.00 | 99 | |
| 20260505111920 | 47 | 133 | 0.0 | 0.0 | 0.00 | 0.00 | 0.00 | 99 | |
| 20260505111415 | 46 | 133 | 0.0 | 0.0 | 0.00 | 0.00 | 0.00 | 99 | |
| 20260505110912 | 46 | 134 | 0.0 | 0.0 | 0.00 | 0.00 | 0.00 | 99 | |
| 20260505110409 | 46 | 134 | 0.0 | 0.0 | 0.00 | 0.00 | 0.00 | 99 | |
| 20260505101839 | 46 | 134 | 0.0 | 0.0 | 0.00 | 0.00 | 0.00 | 99 | |
| 20260505101334 | 46 | 134 | 0.0 | 0.0 | 0.00 | 0.00 | 0.00 | 99 | |
| 20260505100830 | 46 | 134 | 0.0 | 0.0 | 0.00 | 0.00 | 0.00 | 99 | |
| 20260505100327 | 46 | 134 | 0.0 | 0.0 | 0.00 | 0.00 | 0.00 | 99 | |
| 20260505095822 | 46 | 134 | 0.0 | 0.0 | 0.00 | 0.00 | 0.00 | 99 | |
| 20260505095321 | 46 | 134 | 0.0 | 0.0 | 0.00 | 0.00 | 0.00 | 99 | |
| 20260505094816 | 46 | 134 | 0.0 | 0.0 | 0.00 | 0.00 | 0.00 | 99 | |
| 20260505094313 | 47 | 134 | 0.0 | 0.0 | 0.00 | 0.00 | 0.00 | 99 | |
| 20260505093814 | 47 | 134 | 0.0 | 0.0 | 0.00 | 0.00 | 0.00 | 99 | |
| 20260505093312 | 47 | 134 | 0.0 | 0.0 | 0.00 | 0.00 | 0.00 | 99 | |
| 20260505092808 | 47 | 134 | 0.0 | 0.0 | 0.00 | 0.00 | 0.00 | 99 | |
| 20260505092307 | 47 | 134 | 0.0 | 0.0 | 0.00 | 0.00 | 0.00 | 99 | |
| 20260505091804 | 47 | 134 | 0.0 | 0.0 | 0.00 | 0.00 | 0.00 | 99 | |
| 20260505091302 | 47 | 134 | 0.0 | 0.0 | 0.00 | 0.00 | 0.00 | 99 | |
| 20260505090800 | 47 | 134 | 0.0 | 0.0 | 0.00 | 0.00 | 0.00 | 99 | |
| 20260505090258 | 47 | 134 | 0.0 | 0.0 | 0.00 | 0.00 | 0.00 | 99 | |
| 20260505085754 | 47 | 134 | 0.0 | 0.0 | 0.00 | 0.00 | 0.00 | 99 | |
| 20260505085252 | 47 | 134 | 0.0 | 0.0 | 0.00 | 0.00 | 0.00 | 99 | |
| 20260505084749 | 47 | 134 | 0.0 | 0.0 | 0.00 | 0.00 | 0.00 | 99 | |
| 20260505084244 | 47 | 134 | 0.0 | 0.0 | 0.00 | 0.00 | 0.00 | 99 | |
| 20260505083740 | 47 | 134 | 0.0 | 0.0 | 0.00 | 0.00 | 0.00 | 99 | |
| 20260505083237 | 47 | 134 | 0.0 | 0.0 | 0.00 | 0.00 | 0.00 | 98 | |
| 20260505082733 | 47 | 133 | 0.0 | 0.0 | 0.00 | 0.00 | 0.00 | 98 | |
| 20260505082230 | 47 | 133 | 0.0 | 0.0 | 0.00 | 0.00 | 0.00 | 98 | |
| 20260505081726 | 48 | 133 | 0.0 | 0.0 | 0.00 | 0.00 | 0.00 | 98 | |
| 20260505081223 | 48 | 133 | 0.0 | 0.0 | 0.00 | 0.00 | 0.00 | 98 | |
| 20260505080720 | 48 | 133 | 0.0 | 0.0 | 0.00 | 0.00 | 0.00 | 98 | |
| 20260505080216 | 48 | 133 | 0.0 | 0.0 | 0.00 | 0.00 | 0.00 | 98 | |
| 20260505075712 | 48 | 133 | 0.0 | 0.0 | 0.00 | 0.00 | 0.00 | 98 | |
| 20260505075209 | 48 | 133 | 0.0 | 0.0 | 0.00 | 0.00 | 0.00 | 98 | |
| 20260505074706 | 48 | 133 | 0.0 | 0.0 | 0.00 | 0.00 | 0.00 | 98 | |
| 20260505074203 | 48 | 133 | 0.0 | 0.0 | 0.00 | 0.00 | 0.00 | 98 | |
| 20260505073701 | 48 | 134 | 0.0 | 0.0 | 0.00 | 0.00 | 0.00 | 98 | |
| 20260505073159 | 48 | 134 | 0.0 | 0.0 | 0.00 | 0.00 | 0.00 | 98 | |
| 20260505072654 | 48 | 134 | 0.0 | 0.0 | 0.00 | 0.00 | 0.00 | 98 | |
| 20260505072151 | 48 | 134 | 0.0 | 0.0 | 0.00 | 0.00 | 0.00 | 98 | |
| 20260505071646 | 48 | 134 | 0.0 | 0.0 | 0.00 | 0.00 | 0.00 | 97 | |
| 20260505071144 | 49 | 133 | 0.0 | 0.0 | 0.00 | 0.00 | 0.00 | 97 | |
| 20260505070641 | 49 | 133 | 0.0 | 0.0 | 0.00 | 0.00 | 0.00 | 97 | |
| 20260505070137 | 49 | 134 | 0.0 | 0.0 | 0.00 | 0.00 | 0.00 | 97 | |
| 20260505065633 | 49 | 134 | 0.0 | 0.0 | 0.00 | 0.00 | 0.00 | 97 | |
| 20260505065130 | 49 | 134 | 0.0 | 0.0 | 0.00 | 0.00 | 0.00 | 97 | |
| 20260505064627 | 49 | 134 | 0.0 | 0.0 | 0.00 | 0.00 | 0.00 | 97 | |
| 20260505064125 | 49 | 134 | 0.0 | 0.0 | 0.00 | 0.00 | 0.00 | 97 | |
| 20260505063623 | 49 | 134 | 0.0 | 0.0 | 0.00 | 0.00 | 0.00 | 97 | |
| 20260505063118 | 49 | 134 | 0.0 | 0.0 | 0.00 | 0.00 | 0.00 | 96 | |
| 20260505062615 | 49 | 134 | 0.0 | 0.0 | 0.00 | 0.00 | 0.00 | 96 | |
| 20260505062112 | 49 | 133 | 0.0 | 0.0 | 0.00 | 0.00 | 0.00 | 96 | |
| 20260505061610 | 49 | 133 | 0.0 | 0.0 | 0.00 | 0.00 | 0.00 | 96 | |
| 20260505061108 | 50 | 133 | 0.0 | 0.0 | 0.00 | 0.00 | 0.00 | 96 | |
| 20260505060605 | 50 | 133 | 0.0 | 0.0 | 0.00 | 0.00 | 0.00 | 95 | |
| 20260505055557 | 50 | 133 | 0.0 | 0.0 | 0.00 | 0.00 | 0.00 | 95 |